Change the Weather History Date:

Monday, June 25, 2012

  Actual Average Record
Temperature  
Mean Temperature 57 °F 67 °F  
Max Temperature 71 °F 83 °F 98 °F (2003)
Min Temperature 42 °F 51 °F 42 °F (2012)
Degree Days  
Heating Degree Days 8    
Month to date heating degree days 60  
Since 1 June heating degree days 60  
Since 1 July heating degree days 2922  
Cooling Degree Days 0    
Month to date cooling degree days 71  
Year to date cooling degree days 100  
Since 1 June cooling degree days 71  
Growing Degree Days 6 (Base 50)    
Moisture  
Dew Point 45 °F    
Average Humidity 64    
Maximum Humidity 89    
Minimum Humidity 39    
Precipitation  
Precipitation 0.00 in 0.00 in 1.14 in (2013)
Month to date precipitation 0.02 0.21  
Year to date precipitation 18.79 22.06  
Since 1 July precipitation 23.25 36.25  
Sea Level Pressure  
Sea Level Pressure 30.02 in    
Wind  
Wind Speed 7 mph (WSW)    
Max Wind Speed 18 mph    
Max Gust Speed 28 mph    
Visibility 10 miles    
Events      
T = Trace of Precipitation, MM = Missing Value Source: NWS Daily Summary

Daily Weather History Graph

Daily Weather History Graph

Search for Another Location

Airport or City:

Trip Planner

Search our weather history database for the weather conditions in past years. The results will help you decide how hot, cold, wet, or windy it might be!

Date:

Astronomy

Jun. 25, 2012 Rise Set
Actual Time 5:48 AM PDT 8:39 PM PDT
Civil Twilight 5:16 AM PDT 9:11 PM PDT
Nautical Twilight 4:36 AM PDT 9:51 PM PDT
Astronomical Twilight 3:51 AM PDT 10:36 PM PDT
Moon 12:00 PM PDT (6/25) No Moon Set
Length of Visible Light 15h 54m
Length of Day
14h 50m
Waxing Crescent, 35% of the Moon is Illuminated
Jun 25
Waxing Crescent
Jun 26
First Quarter
Jul 3
Full
Jul 10
Last Quarter
Jul 18
New

Hourly Weather History & Observations

Time (PDT) Temp. Windchill Dew Point Humidity Pressure Visibility Wind Dir Wind Speed Gust Speed Precip Events Conditions
12:53 AM 51.1 °F - 41.0 °F 68% 30.00 in 10.0 mi Calm Calm - N/A   Clear
1:53 AM 50.0 °F - 42.1 °F 74% 30.01 in 10.0 mi WSW 3.5 mph - N/A   Clear
2:53 AM 46.9 °F - 41.0 °F 80% 30.01 in 10.0 mi SE 3.5 mph - N/A   Clear
3:53 AM 46.0 °F 44.8 °F 41.0 °F 83% 30.01 in 10.0 mi ESE 3.5 mph - N/A   Clear
4:53 AM 45.0 °F - 39.9 °F 82% 30.03 in 10.0 mi Calm Calm - N/A   Clear
5:53 AM 43.0 °F - 39.9 °F 89% 30.04 in 10.0 mi Calm Calm - N/A   Clear
6:53 AM 46.9 °F - 43.0 °F 86% 30.05 in 10.0 mi Calm Calm - N/A   Scattered Clouds
7:53 AM 53.1 °F - 45.0 °F 74% 30.05 in 10.0 mi Calm Calm - N/A   Scattered Clouds
8:53 AM 57.0 °F - 43.0 °F 59% 30.06 in 10.0 mi Calm Calm - N/A   Scattered Clouds
9:53 AM 62.1 °F - 46.9 °F 58% 30.05 in 10.0 mi SSW 5.8 mph - N/A   Scattered Clouds
10:53 AM 66.0 °F - 46.0 °F 48% 30.05 in 10.0 mi WSW 6.9 mph - N/A   Mostly Cloudy
11:53 AM 68.0 °F - 43.0 °F 40% 30.04 in 10.0 mi WSW 10.4 mph 18.4 mph N/A   Partly Cloudy
12:53 PM 70.0 °F - 44.1 °F 39% 30.03 in 10.0 mi West 10.4 mph - N/A   Mostly Cloudy
1:53 PM 70.0 °F - 45.0 °F 41% 30.02 in 10.0 mi WSW 11.5 mph - N/A   Scattered Clouds
2:53 PM 69.1 °F - 45.0 °F 42% 30.02 in 10.0 mi West 11.5 mph 20.7 mph N/A   Scattered Clouds
3:53 PM 69.1 °F - 46.0 °F 44% 30.01 in 10.0 mi West 16.1 mph 23.0 mph N/A   Scattered Clouds
4:53 PM 66.9 °F - 46.9 °F 49% 30.01 in 10.0 mi WSW 15.0 mph 21.9 mph N/A   Scattered Clouds
5:53 PM 66.0 °F - 46.9 °F 50% 30.00 in 10.0 mi WSW 13.8 mph 19.6 mph N/A   Scattered Clouds
6:53 PM 64.9 °F - 48.0 °F 54% 30.00 in 10.0 mi WSW 13.8 mph 20.7 mph N/A   Scattered Clouds
7:53 PM 61.0 °F - 48.9 °F 64% 30.01 in 10.0 mi WSW 10.4 mph - N/A   Partly Cloudy
8:53 PM 59.0 °F - 50.0 °F 72% 30.01 in 10.0 mi SW 4.6 mph - N/A   Partly Cloudy
9:53 PM 57.9 °F - 50.0 °F 75% 30.02 in 10.0 mi SW 3.5 mph - N/A   Clear
10:53 PM 54.0 °F - 48.9 °F 83% 30.03 in 10.0 mi West 4.6 mph - N/A   Clear
11:53 PM 55.0 °F - 48.0 °F 77% 30.03 in 10.0 mi WSW 3.5 mph - N/A   Clear